CW1734 Weather Reports


Display with metric or nautical units.
time (UTC)temp
F
wind
direction
speed
MPH
gust
MPH
rain 1hr
in
rain 24hr
in
rain mn
in
humidity
%
barometer
mb
20260506143404 59 306 4.0 7.0 0.00 0.00 0.00 52 1012.4
20260506142404 59 311 5.0 8.0 0.00 0.00 0.00 50 1012.4
20260506141904 59 328 4.0 7.0 0.00 0.00 0.00 50 1012.4
20260506141404 59 306 5.0 7.0 0.00 0.00 0.00 51 1012.4
20260506140904 59 342 6.0 9.0 0.00 0.00 0.00 49 1012.4
20260506140404 60 300 6.0 12.0 0.00 0.00 0.00 48 1012.4
20260506135903 61 336 8.0 12.0 0.00 0.00 0.00 47 1012.5
20260506135404 61 324 7.0 10.0 0.00 0.00 0.00 48 1012.5
20260506134904 61 294 9.0 12.0 0.00 0.00 0.00 51 1012.5
20260506134404 61 349 6.0 8.0 0.00 0.00 0.00 47 1012.5
20260506133904 61 10 7.0 13.0 0.00 0.00 0.00 50 1012.5
20260506133403 60 314 7.0 12.0 0.00 0.00 0.00 47 1012.5
20260506132404 61 341 6.0 13.0 0.00 0.00 0.00 46 1012.5
20260506131404 61 307 4.0 9.0 0.00 0.00 0.00 47 1012.5
20260506130404 60 13 6.0 13.0 0.00 0.00 0.00 49 1012.5
20260506125903 61 338 5.0 10.0 0.00 0.00 0.00 50 1012.5
20260506125403 60 292 6.0 13.0 0.00 0.00 0.00 54 1012.5
20260506124905 60 283 7.0 10.0 0.00 0.00 0.00 55 1012.5
20260506124404 59 301 8.0 12.0 0.00 0.00 0.00 54 1012.5
20260506123904 60 287 8.0 10.0 0.00 0.00 0.00 54 1012.5
20260506122403 60 317 7.0 10.0 0.00 0.00 0.00 52 1012.5
20260506121903 60 297 8.0 12.0 0.00 0.00 0.00 56 1012.6
20260506121403 60 326 6.0 12.0 0.00 0.00 0.00 54 1012.7
20260506120404 60 282 6.0 13.0 0.00 0.00 0.00 57 1012.7
20260506115403 58 317 6.0 9.0 0.00 0.00 0.00 58 1012.8
20260506114905 59 330 6.0 8.0 0.00 0.00 0.00 56 1012.8
20260506113404 59 284 6.0 15.0 0.00 0.00 0.00 58 1012.8
20260506112904 58 295 7.0 10.0 0.00 0.00 0.00 61 1012.8
20260506112403 58 291 8.0 13.0 0.00 0.00 0.00 58 1012.8
20260506111904 58 314 6.0 9.0 0.00 0.00 0.00 59 1012.8
20260506110904 58 283 5.0 13.0 0.00 0.00 0.00 57 1012.8
20260506110404 58 36 5.0 9.0 0.00 0.00 0.00 57 1012.8
20260506105904 58 40 6.0 10.0 0.00 0.00 0.00 57 1012.8
20260506105404 58 332 7.0 12.0 0.00 0.00 0.00 57 1012.8
20260506104403 58 334 7.0 10.0 0.00 0.00 0.00 56 1012.8
20260506103904 58 331 6.0 10.0 0.00 0.00 0.00 57 1012.8
20260506103403 58 314 7.0 14.0 0.00 0.00 0.00 59 1012.8
20260506102904 58 314 7.0 10.0 0.00 0.00 0.00 60 1012.8
20260506102403 57 333 5.0 10.0 0.00 0.00 0.00 60 1012.8
20260506101404 57 343 5.0 13.0 0.00 0.00 0.00 57 1012.8
20260506100903 57 336 6.0 12.0 0.00 0.00 0.00 60 1012.8
20260506100404 57 24 6.0 9.0 0.00 0.00 0.00 61 1012.8
20260506095403 57 28 7.0 12.0 0.00 0.00 0.00 62 1012.9
20260506094904 56 4 6.0 10.0 0.00 0.00 0.00 63 1012.9
20260506094404 56 10 4.0 9.0 0.00 0.00 0.00 66 1012.9
20260506093904 55 10 5.0 8.0 0.00 0.00 0.00 66 1012.9
20260506093403 55 358 6.0 10.0 0.00 0.00 0.00 65 1012.9
20260506092903 55 13 7.0 10.0 0.00 0.00 0.00 66 1012.9
20260506092404 54 18 6.0 12.0 0.00 0.00 0.00 67 1012.9
20260506091904 54 8 5.0 10.0 0.00 0.00 0.00 69 1012.9
20260506091403 53 324 6.0 8.0 0.00 0.00 0.00 70 1012.9
20260506090404 53 332 5.0 10.0 0.00 0.00 0.00 70 1012.9
20260506085904 52 6 7.0 12.0 0.00 0.00 0.00 72 1012.9
20260506085404 52 13 5.0 12.0 0.00 0.00 0.00 72 1013.0
20260506084903 52 355 5.0 9.0 0.00 0.00 0.00 73 1013.0
20260506084404 52 354 6.0 8.0 0.00 0.00 0.00 74 1012.9
20260506083404 51 35 3.0 7.0 0.00 0.00 0.00 75 1012.9
20260506082904 51 12 3.0 7.0 0.00 0.00 0.00 76 1012.9
20260506082404 51 0 5.0 7.0 0.00 0.00 0.00 76 1012.6
20260506081404 51 21 6.0 9.0 0.00 0.00 0.00 76 1012.6
20260506080904 51 4 6.0 9.0 0.00 0.00 0.00 76 1012.6
20260506080403 51 25 5.0 9.0 0.00 0.00 0.00 76 1012.6
20260506072903 50 29 5.0 8.0 0.00 0.00 0.00 78 1012.6
20260506071404 50 25 6.0 13.0 0.00 0.00 0.00 79 1012.6
20260506070904 50 358 3.0 8.0 0.00 0.00 0.00 79 1012.2
20260506070403 50 15 6.0 9.0 0.00 0.00 0.00 79 1012.2
20260506062404 50 30 4.0 7.0 0.00 0.00 0.00 80 1012.2
20260506061904 50 13 4.0 9.0 0.00 0.00 0.00 80 1012.2
20260506061403 50 18 6.0 9.0 0.00 0.00 0.00 80 1012.1
20260506060904 50 21 6.0 9.0 0.00 0.00 0.00 81 1012.1
20260506060404 50 20 5.0 7.0 0.00 0.00 0.00 81 1012.0
20260506051404 50 27 6.0 9.0 0.00 0.00 0.00 81 1011.8
20260506050403 50 3 5.0 7.0 0.00 0.00 0.00 80 1011.8
20260506044904 50 10 4.0 7.0 0.00 0.00 0.00 80 1011.8
20260506044403 50 16 3.0 8.0 0.00 0.00 0.00 79 1011.8
20260506043404 51 21 4.0 7.0 0.00 0.00 0.00 78 1011.6
20260506042903 51 26 5.0 9.0 0.00 0.00 0.00 78 1011.6
20260506042403 51 31 6.0 10.0 0.00 0.00 0.00 78 1011.6
20260506041904 51 26 6.0 8.0 0.00 0.00 0.00 78 1011.6
20260506041404 51 28 5.0 8.0 0.00 0.00 0.00 78 1011.6
20260506040904 51 28 6.0 10.0 0.00 0.00 0.00 78 1011.6
20260506035404 51 41 4.0 8.0 0.00 0.00 0.00 78 1011.6
20260506034903 51 14 4.0 6.0 0.00 0.00 0.00 77 1011.6
20260506033904 51 358 5.0 9.0 0.00 0.00 0.00 77 1011.4
20260506032904 52 23 5.0 8.0 0.00 0.00 0.00 75 1011.4
20260506032403 52 34 3.0 6.0 0.00 0.00 0.00 75 1011.4
20260506031904 52 48 6.0 12.0 0.00 0.00 0.00 76 1011.5
20260506031403 52 29 4.0 10.0 0.00 0.00 0.00 77 1011.5
20260506030404 52 59 4.0 7.0 0.00 0.00 0.00 77 1011.5
20260506025903 52 31 4.0 7.0 0.00 0.00 0.00 77 1011.6
20260506025403 52 72 5.0 8.0 0.00 0.00 0.00 78 1011.6
20260506024903 53 46 5.0 10.0 0.00 0.00 0.00 78 1011.6
20260506024403 53 27 5.0 8.0 0.00 0.00 0.00 78 1011.6
20260506023903 53 35 5.0 8.0 0.00 0.00 0.00 77 1011.6
20260506023404 53 38 4.0 8.0 0.00 0.00 0.00 77 1011.6
20260506022904 53 62 6.0 9.0 0.00 0.00 0.00 76 1011.6
20260506022404 53 39 5.0 10.0 0.00 0.00 0.00 76 1011.6
20260506021904 53 37 5.0 12.0 0.00 0.00 0.00 76 1011.6
20260506020904 53 47 4.0 8.0 0.00 0.00 0.00 75 1011.6
20260506020404 53 61 3.0 6.0 0.00 0.00 0.00 75 1011.6
20260506015903 53 44 2.0 5.0 0.00 0.00 0.00 75 1011.6
20260506015404 53 37 4.0 8.0 0.00 0.00 0.00 75 1011.6
20260506014403 53 43 3.0 7.0 0.00 0.00 0.00 74 1011.6
20260506013903 53 45 4.0 7.0 0.00 0.00 0.00 74 1011.6
20260506013403 53 39 5.0 10.0 0.00 0.00 0.00 74 1011.6
20260506012904 53 50 6.0 12.0 0.00 0.00 0.00 74 1011.6
20260506012404 53 59 4.0 13.0 0.00 0.00 0.00 74 1011.6
20260506011903 53 38 2.0 6.0 0.00 0.00 0.00 73 1011.6
20260506011404 54 46 3.0 6.0 0.00 0.00 0.00 73 1011.6
20260506010903 54 59 5.0 10.0 0.00 0.00 0.00 73 1011.6
20260506010403 54 49 3.0 10.0 0.00 0.00 0.00 72 1011.6
20260506005903 54 53 5.0 10.0 0.00 0.00 0.00 72 1011.6
20260506005403 54 41 5.0 12.0 0.00 0.00 0.00 72 1011.6
20260506004903 54 54 5.0 8.0 0.00 0.00 0.00 72 1011.5
20260506004404 54 42 4.0 12.0 0.00 0.00 0.00 71 1011.7
20260506003903 54 60 6.0 13.0 0.00 0.00 0.00 70 1011.7
20260506003404 54 59 7.0 12.0 0.00 0.00 0.00 70 1011.7
20260506002404 54 56 4.0 12.0 0.00 0.00 0.00 70 1011.7
20260506001904 54 75 7.0 13.0 0.00 0.00 0.00 71 1011.7
20260506001404 54 53 4.0 12.0 0.00 0.00 0.00 72 1011.6
20260506000904 54 53 3.0 7.0 0.00 0.00 0.00 73 1011.6
20260506000404 55 52 4.0 7.0 0.00 0.00 0.00 73 1011.6
20260505235904 55 62 2.0 5.0 0.00 0.00 0.00 73 1011.5
20260505235404 55 62 4.0 12.0 0.00 0.00 0.00 72 1011.5
20260505234904 55 52 5.0 13.0 0.00 0.00 0.00 73 1011.5
20260505233904 55 39 3.0 8.0 0.00 0.00 0.00 74 1011.5
20260505232404 55 52 3.0 7.0 0.00 0.00 0.00 76 1011.4
20260505231904 55 37 3.0 7.0 0.00 0.00 0.00 76 1011.3
20260505230903 55 37 4.0 6.0 0.00 0.00 0.00 75 1011.3
20260505230404 55 34 3.0 7.0 0.00 0.00 0.00 75 1011.3
20260505225904 55 31 3.0 7.0 0.00 0.00 0.00 74 1011.5
20260505225404 55 25 3.0 6.0 0.00 0.00 0.00 74 1011.5
20260505224904 55 22 3.0 8.0 0.00 0.00 0.00 74 1011.5
20260505224404 55 7 5.0 7.0 0.00 0.00 0.00 74 1011.5
20260505223404 55 0 3.0 5.0 0.00 0.00 0.00 74 1011.4
20260505222404 56 339 3.0 7.0 0.00 0.00 0.00 74 1011.4
20260505221904 56 346 3.0 7.0 0.00 0.00 0.00 73 1011.4
20260505221404 56 9 5.0 6.0 0.00 0.00 0.00 73 1011.4
20260505220904 56 350 4.0 6.0 0.00 0.00 0.00 73 1011.4
20260505220404 56 346 5.0 7.0 0.00 0.00 0.00 73 1011.4
20260505215903 56 0 4.0 8.0 0.00 0.00 0.00 73 1011.4
20260505214904 56 342 3.0 7.0 0.00 0.00 0.00 73 1011.4
20260505214404 56 355 3.0 5.0 0.00 0.00 0.00 73 1011.4
20260505213904 56 0 3.0 7.0 0.00 0.00 0.00 73 1011.4
20260505213403 56 16 3.0 7.0 0.00 0.00 0.00 73 1011.4
20260505212904 56 357 5.0 7.0 0.00 0.00 0.00 73 1011.4
20260505212403 56 8 3.0 7.0 0.00 0.00 0.00 73 1011.4
20260505211905 56 323 2.0 6.0 0.00 0.00 0.00 73 1011.4
20260505211404 56 340 4.0 7.0 0.00 0.00 0.00 74 1011.4
20260505210904 56 344 4.0 8.0 0.00 0.00 0.00 74 1011.4
20260505205904 56 336 3.0 5.0 0.00 0.00 0.00 74 1011.3
20260505205403 56 336 2.0 5.0 0.00 0.00 0.00 74 1011.3
20260505204904 56 333 3.0 6.0 0.00 0.00 0.00 74 1011.3
20260505204404 56 330 3.0 6.0 0.00 0.00 0.00 74 1011.3
20260505203904 56 328 3.0 6.0 0.00 0.00 0.00 74 1011.3
20260505203404 57 329 2.0 6.0 0.00 0.00 0.00 74 1011.3
20260505202404 57 352 3.0 8.0 0.00 0.00 0.00 74 1011.2
20260505201904 57 335 3.0 6.0 0.00 0.00 0.00 74 1011.2
20260505201403 57 336 3.0 6.0 0.00 0.00 0.00 73 1011.3
20260505200904 57 337 3.0 6.0 0.00 0.00 0.00 73 1011.0
20260505200403 57 339 5.0 7.0 0.00 0.00 0.00 73 1011.0
20260505195404 58 344 3.0 7.0 0.00 0.00 0.00 72 1011.0
20260505194903 58 329 3.0 6.0 0.00 0.00 0.00 72 1011.0
20260505194404 58 343 3.0 8.0 0.00 0.00 0.00 72 1011.0
20260505193903 58 341 6.0 8.0 0.00 0.00 0.00 72 1010.8
20260505193403 58 329 4.0 6.0 0.00 0.00 0.00 72 1010.8
20260505192904 58 333 3.0 6.0 0.00 0.00 0.00 72 1010.8
20260505192403 58 329 3.0 5.0 0.00 0.00 0.00 72 1010.8
20260505191904 58 337 3.0 5.0 0.00 0.00 0.00 72 1010.8
20260505191404 58 17 2.0 5.0 0.00 0.00 0.00 72 1010.8
20260505190903 58 339 2.0 3.0 0.00 0.00 0.00 71 1010.7
20260505190403 58 7 2.0 5.0 0.00 0.00 0.00 71 1010.7
20260505185903 58 356 2.0 5.0 0.00 0.00 0.00 70 1010.7
20260505185403 59 353 3.0 6.0 0.00 0.00 0.00 70 1010.7
20260505184903 59 358 2.0 5.0 0.00 0.00 0.00 70 1010.7
20260505184404 59 2 3.0 5.0 0.00 0.00 0.00 69 1010.5
20260505183904 59 343 3.0 5.0 0.00 0.00 0.00 69 1010.5
20260505183403 59 339 2.0 5.0 0.00 0.00 0.00 69 1010.5
20260505182404 59 339 3.0 5.0 0.00 0.00 0.00 69 1010.6
20260505181904 59 341 3.0 5.0 0.00 0.00 0.00 69 1010.6
20260505181403 59 16 2.0 5.0 0.00 0.00 0.00 68 1010.6
20260505175904 59 8 2.0 6.0 0.00 0.00 0.00 68 1010.6
20260505175404 59 7 3.0 5.0 0.00 0.00 0.00 68 1010.6
20260505174904 59 341 3.0 6.0 0.00 0.00 0.00 68 1010.6
20260505174404 59 346 3.0 6.0 0.00 0.00 0.00 67 1010.8
20260505173903 60 337 2.0 5.0 0.00 0.00 0.00 67 1010.8
20260505173403 60 8 1.0 5.0 0.00 0.00 0.00 67 1010.8
20260505172904 60 344 2.0 6.0 0.00 0.00 0.00 67 1010.8
20260505172404 60 349 3.0 5.0 0.00 0.00 0.00 66 1010.8
20260505171903 60 356 3.0 7.0 0.00 0.00 0.00 65 1010.8
20260505171404 60 0 3.0 8.0 0.00 0.00 0.00 65 1010.8
20260505170403 60 15 3.0 6.0 0.00 0.00 0.00 66 1010.8
20260505165904 60 4 5.0 8.0 0.00 0.00 0.00 66 1010.8
20260505165403 60 15 5.0 7.0 0.00 0.00 0.00 65 1010.8
20260505164903 60 0 3.0 7.0 0.00 0.00 0.00 65 1010.8
20260505164404 60 3 3.0 6.0 0.00 0.00 0.00 65 1010.7
20260505163904 61 71 4.0 9.0 0.00 0.00 0.00 66 1010.7
20260505163404 61 20 2.0 6.0 0.00 0.00 0.00 65 1010.7
20260505162903 61 36 2.0 7.0 0.00 0.00 0.00 64 1010.7
20260505162404 61 32 3.0 6.0 0.00 0.00 0.00 64 1010.7
20260505160903 61 357 3.0 6.0 0.00 0.00 0.00 65 1010.8
20260505160403 61 14 2.0 7.0 0.00 0.00 0.00 66 1010.8
20260505152904 61 337 3.0 7.0 0.00 0.00 0.00 63 1011.0
20260505152403 61 31 5.0 8.0 0.00 0.00 0.00 62 1010.9
20260505151904 62 10 2.0 5.0 0.00 0.00 0.00 62 1010.9
20260505151403 62 338 2.0 7.0 0.00 0.00 0.00 61 1011.2
20260505150904 62 46 3.0 6.0 0.00 0.00 0.00 61 1011.2
20260505150404 61 6 2.0 5.0 0.00 0.00 0.00 63 1011.2